Location: Central Falls
(41.8900°N, 71.3929°W)
Time: 07:37:15
(UTC+00:00)

Tiros 1 despin weight - Pass Details

Date: 07 December 2023
Orbit: 581 x 624 km, 48.2° (Epoch: 29 February)

Event Time Altitude Azimuth Distance (km) Brightness Sun altitude
Rises 19:22:35 0° 163° (SSE) 2,813 ? 15.0°
Enters shadow 19:36:08 -13° 64° (ENE) 4,564 ? 13.3°
Exits shadow 20:11:29 -79° 8° (N) 13,140 ? 8.7°
Reaches altitude 10° 21:02:43 10° 207° (SSW) 1,907 ? 1.0°
Maximum altitude 21:06:41 35° 141° (SE) 945 ? 0.4°
Drops below altitude 10° 21:10:39 10° 76° (ENE) 1,899 ? -0.2°
Sets 21:13:03 0° 67° (ENE) 2,799 - -0.6°
